• Join FlightAware (Why Join?)
  • Login
  • US Flag 
10:46AM EDT


 

Airport Tracker/Info


-or-


 

Live Flight TrackerFlight Track Log ✈ SWA542 ✈ 21-Apr-2013 ✈ KOAK - KSAN

Flight Track Log - Related Links

Times and Time Zones

All times are in EDT time to prevent confusion due to time zone crossing. See the SWA542 flight status page for this flight to view local times or setup timezone preferences in your user account.

Time Position Orientation Groundspeed Altitude Reporting Facility
EDT Latitude Longitude Course Direction KTS MPH feet Rate Location/Type
12:28AM 37.7500 -122.2833 202° Southwest 198 228 2,100  Level Northern Cal TRACON
12:29AM 37.7756 -122.3297 305° West 211 243 4,300 2,940 Climbing Oakland Center
12:30AM 37.7333 -122.4000 233° Southwest 281 323 8,000 2,640 Climbing Northern Cal TRACON
12:32AM 37.5653 -122.4389 190° South 366 421 12,500 2,640 Climbing Oakland Center
12:33AM 37.1212 -122.4894 202° Southwest  Level FlightAware Approximate
12:33AM 37.4594 -122.4622 190° South 385 443 15,900  Level Oakland Center
12:34AM 37.3483 -122.4864 190° South 400 460 18,700 2,940 Climbing Oakland Center
12:35AM 37.2078 -122.5169 190° South 424 488 21,900 2,700 Climbing Oakland Center
12:36AM 37.0861 -122.5439 190° South 440 506 24,300 2,160 Climbing Oakland Center
12:37AM 36.9614 -122.5697 189° South 454 522 26,300 1,800 Climbing Oakland Center
12:38AM 36.8311 -122.5411 170° South 471 542 28,000 1,920 Climbing Oakland Center
12:39AM 36.7022 -122.5050 167° South 475 547 30,200 2,160 Climbing Oakland Center
12:40AM 36.5769 -122.4628 165° South 469 540 32,400 1,980 Climbing Oakland Center
12:41AM 36.4856 -122.3433 134° Southeast 470 541 34,300 1,620 Climbing Oakland Center
12:42AM 36.3939 -122.2292 135° Southeast 469 540 35,700 1,200 Climbing Oakland Center
12:43AM 36.3014 -122.1119 134° Southeast 475 547 36,800 1,140 Climbing Oakland Center
12:44AM 36.2094 -121.9933 134° Southeast 479 551 38,100 1,020 Climbing Oakland Center
12:45AM 36.1164 -121.8778 135° Southeast 476 548 38,900 420 Climbing Oakland Center
12:46AM 36.0161 -121.7519 135° Southeast 480 552 39,000  Climbing Oakland Center
12:47AM 35.9228 -121.6325 134° Southeast 483 556 39,000  Level Oakland Center
12:48AM 35.8281 -121.5144 135° Southeast 485 558 39,000  Level Oakland Center
12:49AM 35.7344 -121.3972 135° Southeast 483 556 39,000  Level Oakland Center
12:50AM 35.6383 -121.2792 135° Southeast 488 562 39,000  Level Oakland Center
12:51AM 35.5444 -121.1608 134° Southeast 486 559 39,000  Level Oakland Center
12:52AM 35.4575 -121.0356 130° Southeast 485 558 39,000  Level Oakland Center
12:53AM 35.3647 -120.8736 125° Southeast 485 558 39,000  Level Oakland Center
12:54AM 35.2883 -120.7383 125° Southeast 488 562 39,000  Level Oakland Center
12:55AM 35.2061 -120.5933 125° Southeast 488 562 39,000  Level Los Angeles Center
12:56AM 35.1286 -120.4558 125° Southeast 488 562 39,000  Level Los Angeles Center
12:57AM 35.0344 -120.2914 125° Southeast 489 563 39,000  Level Los Angeles Center
12:58AM 34.9553 -120.1547 125° Southeast 490 564 39,000  Level Los Angeles Center
12:59AM 34.8742 -120.0147 125° Southeast 485 558 39,000  Level Los Angeles Center
01:00AM 34.7958 -119.8803 125° Southeast 489 563 39,000  Level Los Angeles Center
01:01AM 34.7183 -119.7458 125° Southeast 489 563 39,000  Level Los Angeles Center
01:02AM 34.6397 -119.6114 125° Southeast 491 565 39,000  Level Los Angeles Center
01:03AM 34.5575 -119.4750 126° Southeast 489 563 39,000  Level Los Angeles Center
01:04AM 34.4783 -119.3406 126° Southeast 490 564 39,000  Level Los Angeles Center
01:06AM 34.3994 -119.2075 126° Southeast 490 564 39,000  Level Los Angeles Center
01:07AM 34.3192 -119.0739 126° Southeast 492 566 39,000  Level Los Angeles Center
01:08AM 34.2400 -118.9406 126° Southeast 489 563 39,000  Level Los Angeles Center
01:09AM 34.1589 -118.8078 126° Southeast 491 565 39,000 -300 Level Los Angeles Center
01:10AM 34.0789 -118.6747 126° Southeast 490 564 38,500 -840 Descending Los Angeles Center
01:11AM 33.9825 -118.5156 126° Southeast 490 564 37,300 -1,140 Descending Los Angeles Center
01:12AM 33.8981 -118.3861 128° Southeast 492 566 36,300 -1,080 Descending Los Angeles Center
01:13AM 33.8136 -118.2833 135° Southeast 494 568 35,200 -2,160 Descending Los Angeles Center
01:14AM 33.7236 -118.1644 132° Southeast 488 562 31,900 -3,360 Descending Los Angeles Center
01:15AM 33.6108 -118.0208 133° Southeast 489 563 28,400 -3,180 Descending Los Angeles Center
01:16AM 33.5208 -117.9069 133° Southeast 476 548 25,500 -2,400 Descending Los Angeles Center
01:17AM 33.4342 -117.7969 133° Southeast 459 528 23,600 -3,000 Descending Los Angeles Center
01:18AM 33.3492 -117.6908 134° Southeast 445 512 19,500 -3,720 Descending Los Angeles Center
01:19AM 33.2669 -117.5861 133° Southeast 434 499 16,000 -2,220 Descending Los Angeles Center
01:20AM 33.1800 -117.5056 142° Southeast 398 458 15,000 -1,020 Descending Los Angeles Center
01:21AM 33.1000 -117.4333 143° Southeast 329 379 14,000 -1,200 Descending Southern California TRACON
01:22AM 33.0333 -117.3833 148° Southeast 315 362 12,800 -1,440 Descending Southern California TRACON
01:23AM 32.9667 -117.3333 148° Southeast 310 357 11,300 -1,500 Descending Southern California TRACON
01:24AM 32.9000 -117.2833 148° Southeast 301 346 10,000 -1,440 Descending Southern California TRACON
01:25AM 32.8333 -117.2167 140° Southeast 299 344 8,600 -1,260 Descending Southern California TRACON
01:25AM 32.8192 -117.2161 178° South 297 342 8,400 -1,380 Descending Los Angeles Center
01:26AM 32.7856 -117.0933 108° East 290 334 6,300 -1,680 Descending Los Angeles Center
01:27AM 32.7667 -117.0333 111° Southeast 283 326 5,400 -960 Descending Southern California TRACON
01:28AM 32.7500 -116.9500 103° East 252 290 5,000 -600 Descending Southern California TRACON
01:29AM 32.7000 -116.9500 180° South 219 252 4,200 -780 Descending Southern California TRACON
01:30AM 32.7000 -117.0167 270° West 196 226 3,400 -1,140 Descending Southern California TRACON
01:31AM 32.7000 -117.0667 270° West 164 189 2,000 -1,140 Descending Southern California TRACON
01:32AM 32.7167 -117.1167 292° West 138 159 1,300 -780 Descending Southern California TRACON
01:32AM 32.7208 -117.1358 284° West 143 165 800 -660 Descending Los Angeles Center
01:33AM 32.7319 -117.1828 286° West 138 159 200 -600 Descending Los Angeles Center
01:35AM 32.7333 -117.1833 275° West  Level FlightAware Approximate
01:42AM 32.7336 -117.1897 275° West  Level Estimated